Find Starlink 4146

NORAD ID: 53294 Int'l Des: 2022-086 Owner: SPXS Country: US Constellation: starlink operational
LEOCIRCULAR

Live Position

Loading 3D Globe...

About Starlink 4146

Description loading...

Upcoming Passes

Passes for default location (London). Set your location on the main map for personalized predictions.

Altitude History

Loading altitude history...

Two-Line Element Set

1 53294U 22086BE 26106.12972671 .00000299 00000-0 36859-4 0 9996
2 53294 53.2185 5.8810 0001816 93.6827 266.4373 15.08840245207021
Epoch: Apr 16, 2026 • Age: 9 hours

Current Status

Altitude 556.5 km
Velocity 7.58 km/s
Sub-Earth Point -46.15°S, 151.82°W
Launch Date Jul 24, 2022
Age 3.7 years
Type internet

Technical Details

Classification Payload
Mass 297.00 kg
Dry Mass 275.00 kg
Total Mass 297.00 kg
Length 0.20 m
Diameter 2.80 m
Span 9.00 m
Shape Box + pan
Manufacturer SPXS
Bus Type Starlink
Phase Status In Orbit
Owner/State SPXS/US

Most Searched